Tracking 20232 objects as of 21-Jan-2020
HD Live streaming from Space Station
objects crossing your sky now

COSMOS 1761

Track COSMOS 1761 now!
COSMOS 1761 is classified as:


NORAD ID: 16849
Int'l Code: 1986-050A
Perigee: 6,351.9 km
Apogee: 33,980.0 km
Inclination: 69.8 °
Period: 717.0 minutes
Semi major axis: 26536 km
RCS: 12.1379 m2 (large)
Launch date: July 5, 1986
Source: Commonwealth of Independent States (former USSR) (CIS)
Launch site: PLESETSK MISSILE AND SPACE COMPLEX (PKMTR)
aabbcc
Your satellite tracking list
Your tracking list is empty




NASA's NSSDC Master Catalog

Two Line Element Set (TLE):
1 16849U 86050A   20018.35945976 -.00000214 +00000-0 +00000-0 0  9994
2 16849 069.7737 164.2213 5205576 066.4084 347.7887 02.00828889245680
Source of the keplerian elements: AFSPC